Skip Page Navigation
NASA JPL Caltech
NASA Logo - Jet Propulsion Laboratory + View the NASA Portal
+ Center for Near-Earth Object Studies
JPL Home Earth Solar System Stars & Galaxies Technology
JPL Solar System Dynamics
BODIES ORBITS EPHEMERIDES TOOLS PHYSICAL DATA DISCOVERY FAQ SITE MAP
IMPORTANT: The SSD Announcement email list is now available. Major changes are coming in the near future, including possible hostname and/or URL changes. To be notified of such changes, subscribe to this email list.

Please visit this page for more details.


JPL Small-Body Database Browser
Search: [ help ]  
32182 (2000 NR18)
Classification: Main-belt Asteroid          SPK-ID: 2032182
Ephemeris | Orbit Diagram | Orbital Elements | Mission Design | Physical Parameters | Discovery Circumstances | Close-Approach Data ]

[ show orbit diagram ]
Orbital Elements at Epoch 2458600.5 (2019-Apr-27.0) TDB
Reference: JPL 23 (heliocentric ecliptic J2000)
 Element Value Uncertainty (1-sigma)   Units 
e .1896065505102692 3.5677e-08  
a 2.662969951545852 1.2807e-08 au
q 2.158053404920744 9.6091e-08 au
i 3.162315581434322 4.2161e-06 deg
node 67.81801257766311 7.2466e-05 deg
peri 233.7569821249294 7.3307e-05 deg
M 122.158605606666 1.2071e-05 deg
tp 2458061.896226448213
(2017-Nov-04.39622645)
5.2601e-05 TDB
period 1587.259100705243
4.35
1.145e-05
3.135e-08
d
yr
n .2268060708173269 1.6361e-09 deg/d
Q 3.16788649817096 1.5235e-08 au
  Orbit Determination Parameters
   # obs. used (total)      1226  
   data-arc span      11518 days (31.53 yr)  
   first obs. used      1987-07-29  
   last obs. used      2019-02-09  
   planetary ephem.      DE431  
   SB-pert. ephem.      SB431-N16  
   condition code      0  
   norm. resid. RMS      .52942  
   source      ORB  
   producer      Otto Matic  
   solution date      2019-Jul-13 01:30:22  

Additional Information
 Earth MOID = 1.14367 au 
 Jupiter MOID = 2.06476 au 
 T_jup = 3.357 
[ show covariance matrix ]

Ephemeris | Orbit Diagram | Orbital Elements | Mission Design | Physical Parameters | Discovery Circumstances | Close-Approach Data ]

Physical Parameter Table
Parameter Symbol Value Units Sigma Reference Notes
absolute magnitude H 14.4   n/a MPO365634  

32182 (2000 NR18)          Discovered 2000-Jul-05 by LONEOS at Anderson Mesa
Reference: 20011130/Numbers.arcLast Updated: 2004-04-19

[ show close-approach data ]
Alternate Designations
 2000 NR18 = 1987 OP1 = 1994 AX12 
Ephemeris | Orbit Diagram | Orbital Elements | Mission Design | Physical Parameters | Discovery Circumstances | Close-Approach Data ]
ABOUT SSD CREDITS/AWARDS PRIVACY/COPYRIGHT GLOSSARY LINKS
FirstGov
(server date/time)  
NASA Home Page
Site Manager:   Ryan S. Park
Webmaster  Alan B. Chamberlin